Lapse_Rate
8.6 8.5 7.9 7.7 7.6 7.5 7.3 7.2 7.1 6.9 6.3 6.1 5.8 5.7 5.6 5.6 5.5 5.6 5.7 5.5 5.5 5.6 5.7 5.6 5.6 5.6 5.6 5.6 5.5 5.8 6.0 6.0 5.9 5.7 6.1 6.1 6.3 5.8 5.7 4.9 4.1 5.1 5.4
8.4 8.3 8.1 7.8 7.6 7.6 7.3 7.2 7.1 7.0 6.5 6.5 6.2 5.9 5.7 5.5 5.5 5.6 5.6 5.5 5.6 5.7 5.7 5.7 5.7 5.7 5.6 5.6 5.5 5.6 6.1 6.0 5.7 5.7 5.7 6.2 6.2 5.9 5.5 4.8 4.4 5.1 5.2
8.5 8.3 8.1 7.8 7.8 7.8 7.5 7.5 7.3 7.0 6.8 6.6 6.5 6.4 5.9 5.7 5.6 5.7 5.7 5.6 5.7 5.7 5.7 5.7 5.7 5.7 5.6 5.5 5.3 5.5 6.0 6.1 5.9 5.8 6.1 6.2 6.2 5.6 5.4 5.1 4.9 4.9 5.2
8.4 8.1 8.0 7.9 7.7 7.6 7.5 7.5 7.5 7.3 7.0 6.9 6.8 6.5 6.3 6.1 6.0 5.9 5.9 5.7 5.7 5.7 5.7 5.7 5.6 5.6 5.6 5.5 5.3 5.5 5.9 6.0 5.9 6.0 6.0 6.2 6.0 5.8 6.0 5.6 4.9 5.1 5.4
8.3 8.1 7.9 7.6 7.6 7.5 7.5 7.5 7.4 7.3 7.1 7.0 6.9 6.7 6.5 6.4 6.3 6.1 6.0 5.8 5.7 5.8 5.8 5.7 5.6 5.6 5.6 5.4 5.1 5.3 5.8 5.9 5.9 5.8 6.0 5.9 5.8 5.7 5.7 5.4 5.0 5.1 5.5
8.3 8.0 8.0 7.9 7.5 7.3 7.3 7.4 7.3 7.2 7.1 7.0 6.9 6.8 6.7 6.5 6.4 6.2 5.9 5.8 5.8 5.9 5.9 5.8 5.7 5.8 5.7 5.5 5.1 5.4 5.8 5.8 5.8 5.4 5.9 5.7 5.6 5.5 5.5 5.2 5.2 5.5 5.8
8.2 8.0 8.0 7.9 8.0 7.5 7.1 7.2 7.2 7.1 7.0 6.9 6.9 6.9 6.8 6.6 6.5 6.2 6.0 5.9 5.8 6.0 6.1 5.9 5.8 5.7 5.7 5.6 5.4 5.4 5.7 5.6 5.7 5.5 5.6 5.7 5.6 5.5 5.4 5.4 5.7 6.0 5.9
8.4 8.2 7.9 7.8 7.7 7.8 7.5 7.1 7.0 7.0 7.0 6.9 6.8 6.8 6.7 6.6 6.5 6.3 6.0 5.9 6.0 6.0 6.1 6.0 5.9 5.8 5.7 5.5 5.4 5.4 5.5 5.4 5.5 5.5 5.7 5.5 5.7 5.7 5.4 5.5 5.8 5.9 5.9
8.1 8.0 7.9 7.8 7.7 7.8 7.7 7.5 7.2 7.1 7.0 6.9 6.8 6.7 6.6 6.5 6.4 6.3 6.1 5.9 5.9 6.0 6.0 6.0 6.0 5.9 5.7 5.4 5.2 5.3 5.4 5.3 5.5 5.5 5.6 5.7 5.7 5.7 5.8 5.8 6.2 5.8 5.9
8.0 7.9 7.9 7.8 7.8 7.8 7.7 7.7 7.6 7.5 7.3 7.0 6.8 6.7 6.6 6.4 6.3 6.3 6.1 5.9 5.9 6.0 6.0 6.1 6.0 6.0 5.8 5.4 5.2 5.2 5.4 5.3 5.4 5.3 5.6 5.6 5.7 5.7 5.9 6.0 6.0 6.0 6.1
7.8 7.8 7.9 7.9 7.9 7.8 7.6 7.7 7.7 7.7 7.6 7.4 7.2 6.9 6.7 6.5 6.3 6.3 6.2 6.0 6.0 6.0 6.1 6.2 6.1 6.0 5.9 5.5 5.3 5.1 5.4 5.4 5.2 5.2 5.2 5.4 5.5 5.6 5.7 5.7 5.7 5.8 6.2
7.8 7.9 8.0 8.0 7.9 7.8 7.6 7.7 7.7 7.8 7.8 7.6 7.4 7.2 7.1 6.9 6.7 6.6 6.3 6.1 6.1 6.1 6.1 6.3 6.3 6.1 6.0 5.8 5.5 5.3 5.4 5.5 5.4 5.4 5.4 5.4 5.3 5.5 5.5 5.4 5.6 6.0 6.3
7.7 7.8 7.9 8.0 8.0 7.9 7.8 7.7 7.7 7.9 8.0 7.9 7.6 7.4 7.2 7.1 7.0 6.9 6.6 6.4 6.3 6.3 6.2 6.5 6.4 6.3 6.2 6.0 5.8 5.6 5.5 5.6 5.5 5.4 5.3 5.4 5.5 5.2 5.5 5.3 5.7 5.9 6.2
7.9 8.0 8.0 8.0 8.0 8.0 7.9 7.9 7.8 7.8 7.9 8.1 7.8 7.6 7.5 7.3 7.1 6.9 6.7 6.6 6.5 6.5 6.3 6.5 6.6 6.5 6.3 6.3 6.0 5.9 5.5 5.5 5.5 5.4 5.3 5.1 4.9 5.1 5.2 5.0 5.7 5.9 6.1
7.8 7.9 7.9 7.9 8.1 8.1 8.1 8.0 8.1 7.9 7.8 8.0 8.0 7.7 7.5 7.4 7.3 7.1 6.9 6.8 6.8 6.8 6.6 6.6 6.7 6.6 6.5 6.4 6.2 6.0 5.9 5.7 5.6 5.3 5.1 5.2 5.1 4.9 5.0 5.1 5.5 5.9 6.1
7.3 7.7 7.8 7.7 8.0 8.2 8.3 8.3 8.0 7.8 7.7 7.8 8.0 7.9 7.7 7.6 7.6 7.5 7.2 7.0 7.0 7.0 6.9 6.8 6.9 6.8 6.8 6.5 6.3 6.3 6.2 6.0 5.6 5.4 5.1 5.4 5.3 5.0 5.0 5.1 5.4 5.7 6.3
7.0 7.1 7.4 7.8 7.8 7.8 8.0 8.2 8.2 8.1 7.6 7.6 7.7 7.9 7.7 7.6 7.6 7.6 7.5 7.4 7.2 7.0 6.9 6.9 6.9 6.9 6.9 6.6 6.3 6.4 6.3 6.0 5.9 5.7 5.4 5.6 5.2 5.2 5.0 5.3 5.4 5.7 6.2
6.6 7.0 7.2 7.4 7.5 7.6 7.8 8.1 8.3 8.2 7.9 7.9 7.8 7.9 7.9 7.8 7.7 7.7 7.8 7.6 7.2 7.0 6.8 6.9 6.9 7.0 6.9 7.0 6.4 6.2 6.5 6.3 6.1 5.6 5.4 5.4 5.5 5.3 5.0 5.4 5.6 5.9 6.1
6.4 6.6 6.9 7.1 7.4 7.6 7.9 8.0 8.0 8.0 7.7 7.7 7.8 7.8 7.8 8.0 8.1 8.0 7.9 7.9 7.4 7.0 6.8 6.8 6.9 7.0 6.8 7.0 6.5 6.3 6.5 6.4 6.3 6.1 5.5 5.6 5.4 5.3 5.0 5.3 5.5 5.6 6.2
6.5 6.6 6.8 6.8 7.1 7.5 7.6 7.7 7.8 7.8 7.8 8.1 8.2 8.0 7.9 8.0 8.0 8.1 8.0 7.9 7.7 7.4 7.0 6.9 6.9 7.0 6.7 6.8 6.6 6.3 6.5 6.5 6.4 6.3 6.1 5.6 5.6 5.6 5.5 5.5 5.6 5.7 6.0
6.3 6.6 6.8 6.8 7.0 7.1 7.4 7.6 7.9 8.0 8.2 8.5 8.4 8.3 8.2 8.4 8.3 8.2 7.9 7.7 7.5 7.4 7.3 7.0 6.8 6.8 6.6 6.8 6.6 6.5 6.5 6.8 6.6 6.5 6.2 6.0 5.8 5.6 5.5 5.5 5.5 5.6 5.9
6.2 6.3 6.5 6.7 6.9 7.1 7.3 7.4 7.6 7.7 8.0 8.2 8.4 8.3 8.3 8.4 8.5 8.2 7.6 7.6 7.6 7.2 7.0 7.3 7.1 6.8 6.6 6.6 6.8 6.3 6.3 6.7 6.9 6.7 6.3 6.2 6.2 5.7 5.7 5.6 5.6 5.6 5.9
6.4 6.4 6.4 6.6 6.8 7.0 7.0 7.2 7.4 7.7 7.8 7.8 8.0 8.2 8.5 8.5 8.4 7.9 7.6 7.6 7.6 7.3 7.0 6.7 6.7 6.4 6.6 6.5 6.5 6.4 6.3 6.9 7.0 6.8 6.6 6.2 6.1 6.0 5.8 5.8 5.6 5.5 5.5
6.7 6.7 6.6 6.6 6.7 6.9 7.0 7.1 7.2 7.3 7.4 7.7 8.0 8.0 8.4 8.6 8.5 7.7 7.4 7.3 7.7 7.3 5.7 6.2 6.6 6.6 6.2 6.5 6.3 6.2 6.3 6.8 7.0 6.6 6.8 6.5 6.1 6.3 5.9 5.8 5.6 5.7 5.4
6.7 6.8 6.7 6.7 6.8 6.9 6.9 7.0 7.2 7.2 7.3 7.5 7.8 8.1 8.3 8.3 8.3 7.3 7.0 7.4 7.2 7.1 6.7 5.9 5.8 6.1 6.0 6.3 6.3 6.3 6.2 6.2 6.7 6.6 7.0 7.0 6.2 6.2 6.1 6.1 5.5 5.5 5.4
5.5 6.2 6.9 7.1 7.0 7.2 7.1 7.2 7.1 7.3 7.5 7.6 7.7 8.1 8.2 8.0 7.9 7.4 7.2 6.7 6.3 6.9 6.5 6.0 6.0 5.4 5.5 6.1 6.3 6.1 6.2 6.2 6.7 6.7 6.6 7.0 6.3 6.3 6.2 6.1 5.8 5.9 5.7
Wind_Speed
11 21 23 22 18 16 13 12 11 13 17 18 18 18 18 17 15 14 15 15 14 12 14 12 12 13 12 13 13 15 20 20 20 21 21 17 20 16 19 1 5 19 21
16 24 24 23 19 17 15 14 13 12 15 17 18 18 17 17 16 14 15 15 13 13 13 12 12 12 12 12 14 17 18 19 18 18 17 15 16 18 21 8 6 17 21
17 21 24 24 23 21 19 17 15 15 17 18 18 18 18 17 16 15 15 14 13 13 13 13 13 13 12 14 16 18 18 17 15 16 14 13 14 14 20 17 8 19 22
15 21 23 23 22 20 19 18 17 17 18 20 20 20 19 18 17 15 15 14 13 12 12 12 13 13 14 15 15 15 14 15 15 15 11 11 13 15 21 21 14 18 21
14 20 21 23 23 21 19 18 16 16 17 19 19 20 19 18 17 16 15 14 13 12 13 13 13 14 15 16 15 14 13 13 14 20 13 14 15 17 22 22 18 18 19
12 17 20 18 17 16 17 16 15 14 16 18 18 18 18 17 17 16 16 14 12 13 13 14 14 14 15 16 15 14 14 13 15 8 8 11 13 17 21 21 22 22 19
11 12 16 16 18 17 17 16 14 14 14 16 17 19 18 17 17 17 16 15 14 13 14 16 15 16 16 16 16 15 14 12 11 8 8 11 14 18 18 21 20 20 20
10 11 13 13 15 15 15 17 18 16 14 15 17 18 19 19 19 18 17 16 15 15 16 16 17 17 16 16 16 15 14 9 8 6 9 9 16 18 18 18 19 19 20
9 9 12 15 14 12 15 18 19 19 18 17 17 17 18 20 20 18 17 16 16 16 16 18 18 18 17 16 17 16 14 11 7 8 6 11 14 18 17 17 18 18 19
9 10 11 14 15 16 16 16 19 20 20 20 19 18 19 19 18 17 16 15 16 15 17 18 19 18 17 17 17 15 12 7 5 8 7 15 18 16 18 18 18 17 17
10 11 11 11 12 14 15 16 14 14 16 18 18 16 16 16 17 16 16 19 15 15 17 18 19 18 15 15 13 15 13 10 7 4 7 18 18 18 20 18 17 17 17
14 14 12 13 12 13 12 12 17 17 17 18 18 18 18 17 17 17 14 15 15 14 15 17 18 18 16 14 12 10 12 10 7 7 5 16 17 19 21 21 18 18 17
14 12 14 13 12 12 10 11 10 14 16 18 19 19 21 15 16 15 13 14 14 14 14 15 15 16 16 12 12 12 8 8 7 8 6 17 16 18 21 19 17 17 17
13 14 14 15 14 13 12 9 11 7 12 13 17 17 14 10 12 14 12 16 14 16 14 15 14 16 15 13 11 11 10 11 6 4 6 15 12 14 18 18 18 19 18
12 16 17 16 15 13 13 10 11 11 11 16 18 18 19 12 11 13 12 15 16 17 14 12 12 12 13 13 13 12 11 10 9 7 9 16 17 15 16 18 19 20 19
12 14 16 17 17 16 15 15 12 11 16 17 18 17 20 18 10 12 11 12 13 17 17 15 11 10 10 11 10 12 11 10 11 12 8 15 18 17 19 18 19 19 20
11 11 15 17 17 17 19 17 14 11 15 13 15 22 20 20 15 13 11 11 12 16 16 15 13 13 10 9 11 10 11 11 12 12 10 8 12 10 15 18 19 18 20
10 8 10 11 15 18 16 14 13 14 14 12 16 18 20 20 18 12 11 12 16 16 13 10 11 10 11 10 10 9 9 11 13 14 12 11 10 11 17 19 19 19 20
14 12 8 7 13 16 16 13 14 15 14 13 16 15 20 20 20 13 12 9 12 10 11 11 11 12 11 11 10 10 9 9 10 14 11 12 14 14 17 22 20 21 21
17 15 12 9 10 12 12 11 11 13 13 14 14 14 19 19 22 14 10 13 11 10 9 11 12 11 10 10 10 9 9 8 7 9 10 13 13 16 19 18 19 19 23
17 18 18 15 12 9 11 12 12 14 14 15 15 18 18 19 23 16 11 13 12 13 13 11 9 11 10 9 8 6 5 8 9 9 9 10 10 8 16 17 18 17 21
20 20 19 18 18 13 10 12 12 12 13 13 14 15 17 18 20 17 15 11 11 10 11 10 10 6 7 11 8 7 4 5 8 10 10 10 12 10 12 19 21 19 20
25 23 22 21 20 17 16 13 12 12 11 11 10 12 17 20 18 18 20 12 10 7 8 10 11 12 8 9 14 7 4 6 7 10 12 11 12 11 12 16 16 20 19
27 25 24 22 21 18 17 15 19 15 15 14 14 11 13 17 19 17 19 17 14 11 11 9 9 10 9 11 7 10 8 6 7 5 7 10 10 11 13 9 11 17 20
28 30 22 21 19 19 18 18 16 19 14 11 9 12 14 15 17 16 18 18 13 10 12 11 11 13 11 8 9 7 12 8 9 8 7 7 8 9 12 12 11 17 23
23 26 26 22 11 14 18 17 19 17 17 13 14 10 11 10 10 14 15 15 15 13 14 10 11 14 13 11 9 10 10 11 12 11 10 10 11 11 13 11 14 13 19
Wind_Direction
171 147 154 152 156 158 162 153 151 146 148 148 147 146 142 142 142 140 135 136 133 127 137 145 139 140 134 138 121 118 116 114 109 108 111 117 112 125 107 147 161 108 110
159 160 153 149 155 157 164 155 149 143 144 146 144 141 141 141 141 141 138 136 137 132 132 137 136 140 130 122 112 111 115 120 127 128 128 129 136 128 124 128 123 114 103
159 155 160 151 160 164 163 155 152 150 146 144 142 140 141 143 143 143 141 140 143 142 136 133 135 138 129 120 116 119 124 127 126 122 149 138 135 145 127 135 149 116 112
158 160 167 160 160 165 161 161 158 157 153 148 147 146 146 145 146 147 147 147 145 146 150 145 137 133 129 123 122 121 120 127 134 144 162 145 137 150 143 141 132 115 108
172 169 165 163 162 164 161 163 162 159 155 149 147 148 147 147 149 152 153 152 148 144 146 149 144 137 131 128 127 126 130 137 161 192 137 146 141 144 132 123 127 119 112
182 174 143 156 156 158 159 162 164 162 156 151 151 151 149 151 152 155 158 158 153 151 148 144 142 137 138 136 137 135 138 152 188 168 133 106 137 139 131 131 123 108 112
183 179 156 157 154 160 162 161 163 170 167 161 158 155 153 156 156 161 163 162 162 153 144 141 143 144 146 143 141 144 147 169 223 123 134 136 134 130 125 119 117 119 117
189 177 163 162 156 162 167 166 167 175 178 173 169 163 159 159 162 166 166 166 166 156 147 144 147 150 151 147 146 152 153 182 159 153 129 133 135 126 126 131 123 126 123
195 180 166 178 179 174 178 177 176 176 181 183 179 174 168 166 168 169 168 166 167 160 152 150 153 156 156 154 153 158 160 187 159 160 158 137 139 135 136 134 128 126 120
184 183 175 179 188 193 193 193 186 182 184 185 186 183 178 172 172 171 168 168 169 164 157 155 159 162 160 161 162 167 159 186 216 155 172 115 147 146 145 142 138 133 123
192 184 179 175 189 200 206 196 197 192 186 185 187 184 182 187 182 173 187 167 174 172 162 160 164 168 160 164 164 173 170 196 176 158 192 145 153 159 155 150 146 142 135
204 191 187 179 190 195 197 205 206 200 204 201 196 189 199 199 189 189 169 169 177 177 170 167 169 174 175 172 179 178 201 198 200 189 175 161 163 169 163 159 153 147 148
220 205 196 184 186 195 197 195 206 204 201 203 204 199 203 197 189 195 176 177 180 183 185 180 176 192 201 195 181 190 198 185 212 207 163 176 180 174 165 161 160 160 159
221 216 204 196 189 193 197 196 196 195 211 204 211 209 200 194 197 192 188 184 188 185 191 193 191 203 199 206 195 198 211 216 164 179 183 189 170 185 170 167 172 168 165
231 219 213 198 196 192 204 197 199 203 206 210 204 206 211 208 201 203 195 190 191 186 191 196 200 198 204 204 203 208 209 213 194 171 174 188 187 184 184 181 180 173 174
255 237 215 210 202 191 200 207 205 203 204 214 208 209 208 215 204 216 202 200 198 193 192 196 199 196 203 207 204 213 219 202 201 180 179 189 195 202 187 188 185 183 180
297 273 234 215 215 209 203 201 205 211 211 209 214 204 209 209 207 211 214 207 203 201 199 198 196 202 198 202 213 206 214 214 199 180 188 184 202 208 211 200 188 190 182
317 310 285 239 219 220 220 216 214 210 208 214 215 210 205 210 209 207 211 217 203 202 197 203 199 183 214 202 208 214 212 214 202 203 203 190 178 184 220 205 198 189 186
339 323 302 274 238 226 222 223 220 226 218 214 215 212 203 207 201 202 214 211 211 202 206 204 203 200 210 208 209 213 215 220 201 205 199 199 189 188 213 198 200 190 191
340 333 323 292 267 243 238 233 234 226 228 227 219 217 197 202 202 202 205 207 206 209 202 207 209 207 202 210 212 209 214 219 217 216 207 208 213 219 215 198 191 195 193
334 327 324 314 297 265 244 233 228 229 224 224 223 217 209 204 204 198 201 206 198 206 209 198 199 181 208 203 207 216 232 222 217 222 214 211 210 222 225 210 199 200 193
329 322 318 310 305 289 260 242 236 232 236 232 226 214 211 209 204 205 201 200 198 214 216 193 189 186 198 189 185 171 202 209 223 225 221 222 212 203 221 215 206 197 189
327 319 311 304 297 287 277 265 242 237 240 228 222 216 213 209 210 204 205 192 176 191 213 196 196 197 198 204 200 179 168 218 197 209 213 219 219 213 213 211 215 208 206
331 313 305 298 292 284 274 258 251 234 229 225 221 212 214 210 208 200 202 196 168 153 231 215 203 204 204 211 209 225 227 215 201 163 222 219 211 213 211 198 202 222 209
347 344 313 292 283 278 272 255 250 232 236 218 208 207 211 212 210 205 203 195 192 176 182 214 219 207 209 209 207 203 229 234 239 245 193 199 205 214 208 208 197 209 214
354 347 342 341 337 321 282 260 244 235 225 215 210 206 200 207 200 203 202 216 207 180 189 189 219 216 211 213 205 214 216 217 222 224 230 194 206 211 216 205 206 212 211